Flag for Western Sahara Weather past 2 weeks in Smara, Western Sahara

Now
84 °F

Sunny.


Feels Like: 84 °F
Forecast: N/A
Wind: 17 mph from Northeast

Location: Laayoune/Hassan Isl

Current Time: Jul 31, 2014 at 2:41:29 PM

Latest Report: Jul 31, 2014 at 2:00 PM


Visibility: 10 mi

Pressure: 30.04 "Hg

Humidity: 43%

Dew point: 59 °F

Location of SmaraLocation

Historic Weather in Smara — Graph

°F

Smara temperature yesterday

Maximum temperature yesterday: 86 °F (at 2:00 PM)
Minimum temperature yesterday: 66 °F (at 2:00 AM)
Average temperature yesterday: 75 °F

Past Weeks' High & Low Weather Summary

 TemperatureHumidityPressure
High86 °F (Jul 30, 2:00 PM)94% (Jul 26, 6:00 AM)30.09 "Hg (Jul 26, 6:00 AM)
Low63 °F (Jul 26, 6:00 AM)35% (Jul 30, 3:00 PM)29.92 "Hg (Jul 25, 5:00 PM)
Average74 °F66%30.01 "Hg
* Reported Jul 16 1:00 PM — Jul 31 1:00 PM, Smara, Weather by CustomWeather, © 2014

Note: Actual official high and low records may vary slightly from our data, if they occured in-between our weather recording intervals... More about our weather records

Advertising

Smara weather history for previous 24 hours

 ConditionsComfort  
Time TempWeatherWind HumidityBarometerVisibility
1:00 PM
Jul 31
82 °FSunny.16 mph42%30.04 "Hg10 mi
12:00 PM81 °FSunny.20 mph51%30.04 "Hg10 mi
11:00 AM79 °FSunny.16 mph54%30.04 "Hg10 mi
10:00 AM75 °FSunny.18 mph61%30.04 "Hg10 mi
9:00 AM73 °FMild.22 mph65%30.04 "HgN/A
8:00 AM70 °FPassing clouds.14 mph78%30.01 "HgN/A
7:00 AM68 °FPassing clouds.15 mph83%30.01 "Hg6 mi
6:00 AM66 °FPassing clouds.14 mph88%30.01 "Hg5 mi
5:00 AM66 °FMild.15 mph88%29.98 "HgN/A
4:15 AM66 °FPassing clouds.13 mph88%30.01 "HgN/A
4:01 AM68 °FPassing clouds.13 mph83%30.01 "HgN/A
4:00 AM68 °FPassing clouds.14 mph83%30.01 "HgN/A
3:00 AM68 °FPassing clouds.10 mph83%29.98 "HgN/A
2:00 AM68 °FClear.14 mph83%29.98 "Hg10 mi
12:00 AM68 °FMild.15 mph83%30.01 "HgN/A
11:00 PM
Jul 30
70 °FMild.16 mph78%30.01 "HgN/A
10:00 PM70 °FPassing clouds.18 mph73%30.01 "HgN/A
9:00 PM72 °FSunny.17 mph69%29.98 "Hg10 mi
8:00 PM75 °FSunny.17 mph61%29.95 "Hg10 mi
7:00 PM79 °FSunny.17 mph51%29.95 "Hg10 mi
6:00 PM82 °FSunny.18 mph45%29.92 "Hg10 mi
5:00 PM84 °FSunny.17 mph40%29.92 "Hg10 mi
4:00 PM86 °FSunny.18 mph38%29.92 "Hg10 mi
3:00 PM86 °FSunny.17 mph35%29.92 "Hg10 mi
2:00 PM86 °FPleasantly warm.18 mph38%29.95 "HgN/A
Weather by CustomWeather, © 2014

See weather overviewHow to use our weather pages